HBYKC WMPR-WMAU

Flight info

Callsign HBYKC
Flight time 1h 32m
Altitude 3500
Route
Aircraft DA42

Departure

Time 2026-05-05 18:14
Airport LTS Pulau Redang Airport (WMPR)

Arrival

Time 2026-05-05 19:47
Airport Mersing Airport (WMAU)
Time Latitude Longitude Altitude Speed Heading
2026-05-05 18:07 5.77020 103.00638 22 ft 0 kts 115°
2026-05-05 18:07 5.77020 103.00640 22 ft 0 kts 75°
2026-05-05 18:08 5.77018 103.00645 22 ft 4 kts 142°
2026-05-05 18:08 5.77016 103.00646 22 ft 0 kts 153°
2026-05-05 18:13 5.76911 103.00646 23 ft 44 kts 197°
2026-05-05 18:13 5.76448 103.00471 41 ft 92 kts 204°
2026-05-05 18:14 5.75782 103.00241 191 ft 107 kts 195°
2026-05-05 18:14 5.75084 102.99961 537 ft 104 kts 200°
2026-05-05 18:14 5.74404 102.99648 791 ft 118 kts 201°
2026-05-05 18:14 5.73777 102.99486 1388 ft 87 kts 179°
2026-05-05 18:15 5.73131 102.99356 1587 ft 104 kts 199°
2026-05-05 18:15 5.72423 102.99084 1871 ft 109 kts 194°
2026-05-05 18:15 5.71670 102.98817 2100 ft 125 kts 194°
2026-05-05 18:15 5.70801 102.98556 2313 ft 137 kts 194°
2026-05-05 18:16 5.69858 102.98254 2412 ft 151 kts 199°
2026-05-05 18:16 5.68851 102.97958 2584 ft 153 kts 185°
2026-05-05 18:16 5.67729 102.97834 2532 ft 168 kts 185°
2026-05-05 18:16 5.66552 102.97657 2514 ft 173 kts 192°
2026-05-05 18:17 5.65381 102.97344 2509 ft 176 kts 192°
2026-05-05 18:17 5.64181 102.97073 2498 ft 177 kts 190°
2026-05-05 18:17 5.62971 102.96793 2470 ft 179 kts 191°
2026-05-05 18:17 5.61767 102.96495 2460 ft 178 kts 191°
2026-05-05 18:18 5.60558 102.96212 2422 ft 172 kts 190°
2026-05-05 18:18 5.59446 102.95951 2354 ft 165 kts 190°
2026-05-05 18:18 5.58287 102.95779 2047 ft 172 kts 185°
2026-05-05 18:18 5.57180 102.95545 2175 ft 156 kts 195°
2026-05-05 18:19 5.56197 102.95196 2312 ft 144 kts 196°
2026-05-05 18:19 5.55233 102.94964 2325 ft 144 kts 188°
2026-05-05 18:19 5.54259 102.94739 2408 ft 142 kts 191°
2026-05-05 18:19 5.53279 102.94508 2429 ft 148 kts 190°
2026-05-05 18:20 5.52288 102.94199 2470 ft 150 kts 192°
2026-05-05 18:20 5.51270 102.93941 2492 ft 151 kts 193°
2026-05-05 18:20 5.50211 102.93708 2594 ft 160 kts 187°
2026-05-05 18:20 5.49080 102.93704 2656 ft 163 kts 160°
2026-05-05 18:21 5.48128 102.94273 2594 ft 161 kts 134°
2026-05-05 18:21 5.47298 102.95010 2572 ft 159 kts 137°
2026-05-05 18:21 5.46445 102.95716 2536 ft 159 kts 141°
2026-05-05 18:21 5.45565 102.96402 2542 ft 160 kts 142°
2026-05-05 18:22 5.44671 102.97078 2517 ft 163 kts 141°
2026-05-05 18:22 5.43742 102.97751 2527 ft 165 kts 143°
2026-05-05 18:22 5.42845 102.98461 2496 ft 167 kts 142°
2026-05-05 18:22 5.41908 102.99185 2469 ft 166 kts 140°
2026-05-05 18:23 5.41011 102.99880 2481 ft 159 kts 142°
2026-05-05 18:23 5.40143 103.00531 2476 ft 159 kts 140°
2026-05-05 18:23 5.39274 103.01221 2450 ft 161 kts 140°
2026-05-05 18:23 5.38391 103.01891 2448 ft 159 kts 142°
2026-05-05 18:24 5.37517 103.02576 2444 ft 161 kts 140°
2026-05-05 18:24 5.36616 103.03265 2387 ft 165 kts 143°
2026-05-05 18:24 5.35690 103.03942 2423 ft 162 kts 142°
2026-05-05 18:24 5.34789 103.04622 2405 ft 163 kts 142°
2026-05-05 18:25 5.33908 103.05337 2405 ft 160 kts 140°
2026-05-05 18:25 5.33617 103.05570 2425 ft 158 kts 141°
2026-05-05 18:25 5.32157 103.06692 2398 ft 160 kts 142°
2026-05-05 18:25 5.31256 103.07362 2395 ft 163 kts 145°
2026-05-05 18:26 5.30345 103.08041 2388 ft 164 kts 141°
2026-05-05 18:26 5.29436 103.08730 2399 ft 165 kts 141°
2026-05-05 18:26 5.28525 103.09419 2378 ft 163 kts 142°
2026-05-05 18:26 5.27645 103.10131 2387 ft 163 kts 139°
2026-05-05 18:27 5.26804 103.10839 2415 ft 153 kts 141°
2026-05-05 18:27 5.25969 103.11496 2403 ft 152 kts 141°
2026-05-05 18:27 5.25126 103.12155 2400 ft 156 kts 142°
2026-05-05 18:27 5.24239 103.12835 2407 ft 164 kts 144°
2026-05-05 18:28 5.22297 103.14088 2438 ft 165 kts 158°
2026-05-05 18:28 5.21203 103.14504 2412 ft 169 kts 159°
2026-05-05 18:28 5.20118 103.14948 2382 ft 161 kts 157°
2026-05-05 18:29 5.19088 103.15369 2405 ft 161 kts 156°
2026-05-05 18:29 5.18022 103.15803 2511 ft 162 kts 156°
2026-05-05 18:29 5.17129 103.16187 2518 ft 131 kts 157°
2026-05-05 18:29 5.16247 103.16592 2572 ft 145 kts 152°
2026-05-05 18:30 5.15324 103.17116 2478 ft 160 kts 147°
2026-05-05 18:30 5.14670 103.17457 2459 ft 163 kts 155°
2026-05-05 18:30 5.13199 103.17998 2449 ft 172 kts 162°
2026-05-05 18:30 5.12434 103.18241 2400 ft 174 kts 160°
2026-05-05 18:31 5.11295 103.18645 2366 ft 173 kts 157°
2026-05-05 18:31 5.10332 103.19079 2385 ft 149 kts 155°
2026-05-05 18:31 5.09335 103.19505 2380 ft 161 kts 158°
2026-05-05 18:31 5.08264 103.19931 2383 ft 173 kts 158°
2026-05-05 18:32 5.07201 103.20332 2335 ft 163 kts 156°
2026-05-05 18:32 5.06140 103.20789 2287 ft 171 kts 155°
2026-05-05 18:32 5.05032 103.21273 2238 ft 176 kts 156°
2026-05-05 18:32 5.03888 103.21759 2173 ft 179 kts 157°
2026-05-05 18:33 5.02742 103.22233 2170 ft 178 kts 158°
2026-05-05 18:33 5.01589 103.22682 2158 ft 177 kts 159°
2026-05-05 18:33 5.00433 103.23109 2159 ft 176 kts 159°
2026-05-05 18:33 4.99275 103.23522 2205 ft 174 kts 159°
2026-05-05 18:34 4.98176 103.23962 2321 ft 169 kts 156°
2026-05-05 18:34 4.97092 103.24408 2416 ft 168 kts 156°
2026-05-05 18:34 4.95997 103.24868 2386 ft 174 kts 156°
2026-05-05 18:34 4.94874 103.25342 2369 ft 175 kts 158°
2026-05-05 18:35 4.93746 103.25792 2415 ft 173 kts 159°
2026-05-05 18:35 4.92626 103.26211 2451 ft 173 kts 159°
2026-05-05 18:35 4.91512 103.26651 2443 ft 174 kts 157°
2026-05-05 18:35 4.90379 103.27104 2427 ft 177 kts 158°
2026-05-05 18:36 4.89239 103.27562 2438 ft 176 kts 157°
2026-05-05 18:36 4.88101 103.28032 2494 ft 174 kts 157°
2026-05-05 18:36 4.86980 103.28484 2514 ft 174 kts 157°
2026-05-05 18:36 4.85854 103.28952 2518 ft 175 kts 156°
2026-05-05 18:37 4.84724 103.29455 2445 ft 179 kts 154°
2026-05-05 18:37 4.83646 103.30067 2500 ft 176 kts 146°
2026-05-05 18:37 4.82596 103.30639 2808 ft 167 kts 155°
2026-05-05 18:37 4.81519 103.31087 2869 ft 172 kts 160°
2026-05-05 18:38 4.80388 103.31533 2880 ft 177 kts 158°
2026-05-05 18:38 4.79218 103.31978 2797 ft 182 kts 158°
2026-05-05 18:38 4.78028 103.32419 2748 ft 184 kts 158°
2026-05-05 18:38 4.76818 103.32876 2604 ft 189 kts 157°
2026-05-05 18:39 4.75619 103.33369 2531 ft 185 kts 157°
2026-05-05 18:39 4.74440 103.33839 2567 ft 180 kts 157°
2026-05-05 18:39 4.73267 103.34320 2538 ft 186 kts 154°
2026-05-05 18:39 4.72080 103.34863 2460 ft 188 kts 154°
2026-05-05 18:40 4.70920 103.35476 2290 ft 188 kts 147°
2026-05-05 18:40 4.69828 103.36171 2234 ft 183 kts 146°
2026-05-05 18:40 4.68761 103.36858 2172 ft 182 kts 147°
2026-05-05 18:40 4.67675 103.37519 2029 ft 184 kts 151°
2026-05-05 18:41 4.66540 103.38093 1949 ft 183 kts 155°
2026-05-05 18:41 4.65463 103.38516 1834 ft 141 kts 160°
2026-05-05 18:41 4.64537 103.38799 1540 ft 142 kts 164°
2026-05-05 18:41 4.63674 103.39041 1245 ft 122 kts 164°
2026-05-05 18:42 4.62700 103.39308 792 ft 166 kts 162°
2026-05-05 18:42 4.61629 103.39661 236 ft 148 kts 162°
2026-05-05 18:42 4.60670 103.39988 146 ft 148 kts 161°
2026-05-05 18:42 4.59733 103.40318 583 ft 131 kts 160°
2026-05-05 18:43 4.58923 103.40634 952 ft 125 kts 157°
2026-05-05 18:43 4.58184 103.41074 992 ft 111 kts 148°
2026-05-05 18:43 4.57520 103.41428 997 ft 116 kts 152°
2026-05-05 18:43 4.56816 103.41768 962 ft 107 kts 158°
2026-05-05 18:44 4.56115 103.42009 840 ft 109 kts 164°
2026-05-05 18:44 4.55374 103.42198 602 ft 102 kts 166°
2026-05-05 18:44 4.54748 103.42362 294 ft 87 kts 163°
2026-05-05 18:44 4.54186 103.42526 30 ft 73 kts 159°
2026-05-05 18:45 4.54088 103.42652 26 ft 23 kts 62°
2026-05-05 18:45 4.54088 103.42732 26 ft 7 kts 155°
2026-05-05 18:45 4.54071 103.42736 26 ft 5 kts 168°
2026-05-05 18:45 4.54070 103.42737 26 ft 0 kts 167°
2026-05-05 18:46 4.54069 103.42752 26 ft 7 kts 39°
2026-05-05 18:46 4.54074 103.42754 26 ft 0 kts 339°
2026-05-05 18:46 4.54076 103.42748 26 ft 0 kts 279°
2026-05-05 18:49 4.54094 103.42654 26 ft 24 kts 247°
2026-05-05 18:49 4.53967 103.42600 28 ft 43 kts 154°
2026-05-05 18:50 4.53488 103.42744 24 ft 96 kts 163°
2026-05-05 18:50 4.52796 103.42966 247 ft 110 kts 161°
2026-05-05 18:50 4.52066 103.43043 660 ft 108 kts 192°
2026-05-05 18:50 4.51305 103.42834 942 ft 120 kts 197°
2026-05-05 18:51 4.50438 103.42552 1110 ft 135 kts 196°
2026-05-05 18:51 4.49501 103.42263 1228 ft 147 kts 197°
2026-05-05 18:51 4.48446 103.41989 1264 ft 160 kts 192°
2026-05-05 18:51 4.47362 103.41745 1452 ft 159 kts 191°
2026-05-05 18:52 4.46256 103.41522 1372 ft 172 kts 190°
2026-05-05 18:52 4.45056 103.41310 1365 ft 174 kts 189°
2026-05-05 18:52 4.43856 103.41097 1390 ft 176 kts 189°
2026-05-05 18:52 4.42626 103.40864 1362 ft 178 kts 192°
2026-05-05 18:53 4.41420 103.40580 1384 ft 177 kts 194°
2026-05-05 18:53 4.40231 103.40248 1388 ft 178 kts 197°
2026-05-05 18:53 4.39048 103.39873 1288 ft 175 kts 198°
2026-05-05 18:53 4.37917 103.39517 1296 ft 167 kts 198°
2026-05-05 18:54 4.36933 103.38953 1376 ft 161 kts 212°
2026-05-05 18:54 4.35981 103.38412 1490 ft 157 kts 207°
2026-05-05 18:54 4.34988 103.37933 1451 ft 161 kts 203°
2026-05-05 18:54 4.33945 103.37503 1395 ft 163 kts 201°
2026-05-05 18:55 4.32914 103.37043 1388 ft 162 kts 204°
2026-05-05 18:55 4.31891 103.36614 1472 ft 159 kts 199°
2026-05-05 18:55 4.30853 103.36306 1680 ft 152 kts 195°
2026-05-05 18:55 4.29804 103.36031 1710 ft 158 kts 193°
2026-05-05 18:56 4.28752 103.35761 1825 ft 154 kts 196°
2026-05-05 18:56 4.27693 103.35460 1809 ft 162 kts 195°
2026-05-05 18:56 4.26572 103.35169 1748 ft 168 kts 192°
2026-05-05 18:56 4.25403 103.34901 1556 ft 178 kts 192°
2026-05-05 18:57 4.24175 103.34594 1285 ft 185 kts 196°
2026-05-05 18:57 4.22954 103.34228 1189 ft 180 kts 197°
2026-05-05 18:57 4.21838 103.33834 1635 ft 145 kts 198°
2026-05-05 18:57 4.20966 103.33549 2358 ft 124 kts 197°
2026-05-05 18:58 4.20122 103.33268 2517 ft 140 kts 196°
2026-05-05 18:58 4.19131 103.32959 2551 ft 157 kts 195°
2026-05-05 18:58 4.18023 103.32649 2481 ft 171 kts 194°
2026-05-05 18:58 4.16883 103.32344 2560 ft 168 kts 194°
2026-05-05 18:59 4.15756 103.32027 2620 ft 168 kts 196°
2026-05-05 18:59 4.14605 103.31685 2516 ft 177 kts 194°
2026-05-05 18:59 4.13439 103.31299 2553 ft 173 kts 198°
2026-05-05 18:59 4.12296 103.30912 2530 ft 174 kts 197°
2026-05-05 19:00 4.11136 103.30537 2497 ft 176 kts 197°
2026-05-05 19:00 4.09971 103.30143 2436 ft 176 kts 197°
2026-05-05 19:00 4.09189 103.29899 2462 ft 173 kts 195°
2026-05-05 19:00 4.08052 103.29533 2506 ft 170 kts 197°
2026-05-05 19:01 4.06933 103.29159 2506 ft 171 kts 197°
2026-05-05 19:01 4.05801 103.28780 2525 ft 170 kts 196°
2026-05-05 19:01 4.04659 103.28434 2511 ft 174 kts 195°
2026-05-05 19:01 4.03487 103.28124 2468 ft 174 kts 192°
2026-05-05 19:02 4.02318 103.27893 2519 ft 170 kts 188°
2026-05-05 19:02 4.01170 103.27643 2609 ft 171 kts 194°
2026-05-05 19:02 4.00001 103.27334 2459 ft 180 kts 194°
2026-05-05 19:02 3.98796 103.27025 2444 ft 176 kts 193°
2026-05-05 19:03 3.97639 103.26710 2564 ft 169 kts 194°
2026-05-05 19:03 3.96508 103.26401 2597 ft 169 kts 193°
2026-05-05 19:03 3.95349 103.26098 2493 ft 175 kts 194°
2026-05-05 19:03 3.94178 103.25727 2510 ft 173 kts 198°
2026-05-05 19:04 3.93048 103.25336 2558 ft 172 kts 197°
2026-05-05 19:04 3.91861 103.24969 2531 ft 181 kts 195°
2026-05-05 19:04 3.90633 103.24636 2403 ft 183 kts 193°
2026-05-05 19:04 3.89426 103.24305 2521 ft 175 kts 194°
2026-05-05 19:05 3.88294 103.23990 2632 ft 168 kts 194°
2026-05-05 19:05 3.87160 103.23654 2666 ft 171 kts 197°
2026-05-05 19:05 3.85997 103.23268 2351 ft 187 kts 198°
2026-05-05 19:05 3.84766 103.22835 2258 ft 184 kts 197°
2026-05-05 19:06 3.83580 103.22345 2184 ft 182 kts 207°
2026-05-05 19:06 3.82489 103.21744 1997 ft 162 kts 205°
2026-05-05 19:06 3.81588 103.21359 1862 ft 125 kts 198°
2026-05-05 19:06 3.80833 103.21127 1284 ft 108 kts 192°
2026-05-05 19:07 3.80120 103.21038 771 ft 100 kts 180°
2026-05-05 19:07 3.79456 103.21019 356 ft 92 kts 184°
2026-05-05 19:07 3.78852 103.20977 75 ft 74 kts 185°
2026-05-05 19:07 3.78360 103.20944 64 ft 84 kts 182°
2026-05-05 19:08 3.77663 103.20922 157 ft 110 kts 181°
2026-05-05 19:08 3.76859 103.20891 321 ft 121 kts 182°
2026-05-05 19:08 3.76012 103.20946 573 ft 121 kts 169°
2026-05-05 19:08 3.75266 103.21134 1034 ft 103 kts 162°
2026-05-05 19:09 3.74453 103.21405 665 ft 155 kts 161°
2026-05-05 19:09 3.73355 103.21785 322 ft 170 kts 161°
2026-05-05 19:09 3.72283 103.22168 314 ft 161 kts 158°
2026-05-05 19:09 3.71262 103.22585 351 ft 154 kts 164°
2026-05-05 19:10 3.70281 103.22524 270 ft 124 kts 191°
2026-05-05 19:10 3.69530 103.22464 110 ft 93 kts 179°
2026-05-05 19:10 3.68963 103.22473 51 ft 70 kts 181°
2026-05-05 19:10 3.68423 103.22470 170 ft 84 kts 183°
2026-05-05 19:11 3.67804 103.22606 333 ft 102 kts 159°
2026-05-05 19:11 3.67098 103.22884 507 ft 113 kts 158°
2026-05-05 19:11 3.66420 103.23278 752 ft 113 kts 145°
2026-05-05 19:11 3.65785 103.23753 1001 ft 119 kts 138°
2026-05-05 19:12 3.65120 103.24293 1290 ft 123 kts 152°
2026-05-05 19:12 3.64306 103.24577 1570 ft 130 kts 164°
2026-05-05 19:12 3.63354 103.24824 1605 ft 150 kts 163°
2026-05-05 19:12 3.62320 103.25116 1704 ft 157 kts 162°
2026-05-05 19:13 3.61249 103.25454 1792 ft 163 kts 160°
2026-05-05 19:13 3.60182 103.25847 1924 ft 165 kts 159°
2026-05-05 19:13 3.59061 103.26217 1914 ft 175 kts 164°
2026-05-05 19:13 3.57864 103.26507 1938 ft 177 kts 166°
2026-05-05 19:14 3.56680 103.26768 1964 ft 176 kts 167°
2026-05-05 19:14 3.55476 103.27022 1996 ft 175 kts 167°
2026-05-05 19:14 3.54301 103.27258 2256 ft 165 kts 167°
2026-05-05 19:14 3.53163 103.27502 2347 ft 169 kts 167°
2026-05-05 19:15 3.52003 103.27778 2401 ft 171 kts 163°
2026-05-05 19:15 3.50936 103.28079 2378 ft 161 kts 163°
2026-05-05 19:15 3.49831 103.28371 2354 ft 166 kts 165°
2026-05-05 19:15 3.48747 103.28670 2344 ft 143 kts 161°
2026-05-05 19:16 3.47753 103.28972 2350 ft 149 kts 161°
2026-05-05 19:16 3.46837 103.29285 2346 ft 137 kts 159°
2026-05-05 19:16 3.45982 103.29595 2360 ft 125 kts 159°
2026-05-05 19:16 3.45114 103.29873 2405 ft 140 kts 161°
2026-05-05 19:17 3.44139 103.30217 2341 ft 154 kts 157°
2026-05-05 19:17 3.43187 103.30448 2440 ft 149 kts 170°
2026-05-05 19:17 3.42099 103.30619 2413 ft 165 kts 171°
2026-05-05 19:17 3.40987 103.30773 2338 ft 145 kts 168°
2026-05-05 19:18 3.40085 103.31023 2385 ft 133 kts 163°
2026-05-05 19:18 3.39185 103.31276 2404 ft 136 kts 163°
2026-05-05 19:18 3.38221 103.31531 2421 ft 151 kts 165°
2026-05-05 19:18 3.37166 103.31798 2395 ft 161 kts 165°
2026-05-05 19:19 3.36107 103.32078 2358 ft 143 kts 162°
2026-05-05 19:19 3.35159 103.32350 2363 ft 138 kts 163°
2026-05-05 19:19 3.34229 103.32617 2367 ft 140 kts 163°
2026-05-05 19:19 3.33283 103.32868 2376 ft 142 kts 164°
2026-05-05 19:20 3.32316 103.33133 2374 ft 147 kts 163°
2026-05-05 19:20 3.31317 103.33405 2370 ft 149 kts 163°
2026-05-05 19:20 3.30327 103.33665 2372 ft 149 kts 163°
2026-05-05 19:20 3.29336 103.33976 2358 ft 149 kts 161°
2026-05-05 19:21 3.28346 103.34262 2353 ft 148 kts 164°
2026-05-05 19:21 3.27349 103.34521 2362 ft 148 kts 164°
2026-05-05 19:21 3.26346 103.34778 2362 ft 148 kts 163°
2026-05-05 19:21 3.25356 103.35064 2356 ft 148 kts 162°
2026-05-05 19:22 3.24369 103.35347 2382 ft 149 kts 162°
2026-05-05 19:22 3.23378 103.35641 2386 ft 147 kts 164°
2026-05-05 19:22 3.22389 103.35902 2384 ft 148 kts 162°
2026-05-05 19:22 3.21405 103.36180 2376 ft 146 kts 163°
2026-05-05 19:23 3.20422 103.36451 2346 ft 148 kts 163°
2026-05-05 19:23 3.19420 103.36709 2350 ft 149 kts 165°
2026-05-05 19:23 3.18400 103.36960 2351 ft 152 kts 165°
2026-05-05 19:23 3.17369 103.37210 2351 ft 153 kts 165°
2026-05-05 19:24 3.16352 103.37481 2351 ft 149 kts 164°
2026-05-05 19:24 3.15341 103.37746 2345 ft 147 kts 163°
2026-05-05 19:24 3.14362 103.38021 2352 ft 145 kts 163°
2026-05-05 19:24 3.13401 103.38296 2363 ft 143 kts 163°
2026-05-05 19:25 3.12426 103.38559 2364 ft 150 kts 165°
2026-05-05 19:25 3.11419 103.38815 2347 ft 145 kts 163°
2026-05-05 19:25 3.10415 103.39076 2337 ft 142 kts 165°
2026-05-05 19:25 3.09454 103.39346 2341 ft 146 kts 161°
2026-05-05 19:26 3.08479 103.39636 2343 ft 150 kts 162°
2026-05-05 19:26 3.07559 103.39884 2436 ft 119 kts 163°
2026-05-05 19:26 3.06752 103.40073 2383 ft 134 kts 164°
2026-05-05 19:26 3.05787 103.40371 2402 ft 153 kts 160°
2026-05-05 19:27 3.04783 103.40710 2437 ft 154 kts 163°
2026-05-05 19:27 3.03720 103.40974 2410 ft 157 kts 166°
2026-05-05 19:27 3.02657 103.41217 2364 ft 156 kts 164°
2026-05-05 19:27 3.01626 103.41483 2359 ft 151 kts 166°
2026-05-05 19:28 3.00624 103.41736 2344 ft 149 kts 164°
2026-05-05 19:28 2.99689 103.42030 2359 ft 141 kts 160°
2026-05-05 19:28 2.98757 103.42341 2410 ft 141 kts 161°
2026-05-05 19:28 2.97814 103.42624 2439 ft 141 kts 164°
2026-05-05 19:29 2.96855 103.42886 2448 ft 143 kts 164°
2026-05-05 19:29 2.95881 103.43151 2441 ft 146 kts 164°
2026-05-05 19:29 2.94872 103.43393 2429 ft 151 kts 167°
2026-05-05 19:29 2.93841 103.43645 2407 ft 152 kts 165°
2026-05-05 19:30 2.92797 103.43906 2389 ft 158 kts 164°
2026-05-05 19:30 2.91718 103.44167 2361 ft 162 kts 167°
2026-05-05 19:30 2.90707 103.44436 2347 ft 136 kts 161°
2026-05-05 19:30 2.89738 103.44713 2364 ft 150 kts 164°
2026-05-05 19:31 2.88717 103.44958 2351 ft 142 kts 166°
2026-05-05 19:31 2.87860 103.45201 2315 ft 128 kts 161°
2026-05-05 19:31 2.86953 103.45502 2365 ft 144 kts 162°
2026-05-05 19:31 2.85956 103.45800 2354 ft 146 kts 161°
2026-05-05 19:32 2.85030 103.46086 2390 ft 141 kts 162°
2026-05-05 19:32 2.84085 103.46440 2354 ft 152 kts 141°
2026-05-05 19:32 2.83466 103.47243 2359 ft 127 kts 122°
2026-05-05 19:32 2.83034 103.47906 2395 ft 102 kts 126°
2026-05-05 19:33 2.82511 103.48534 2410 ft 132 kts 132°
2026-05-05 19:33 2.81803 103.49256 2402 ft 154 kts 137°
2026-05-05 19:33 2.80942 103.49960 2454 ft 163 kts 144°
2026-05-05 19:33 2.79929 103.50498 2403 ft 171 kts 152°
2026-05-05 19:34 2.78924 103.51146 2387 ft 172 kts 141°
2026-05-05 19:34 2.78045 103.51929 2366 ft 165 kts 133°
2026-05-05 19:34 2.77329 103.52621 2301 ft 134 kts 136°
2026-05-05 19:35 2.75713 103.54455 282 ft 190 kts 133°
2026-05-05 19:35 2.74880 103.55376 88 ft 172 kts 134°
2026-05-05 19:35 2.74074 103.56242 155 ft 169 kts 133°
2026-05-05 19:35 2.73304 103.57142 114 ft 173 kts 130°
2026-05-05 19:36 2.72565 103.58089 51 ft 175 kts 128°
2026-05-05 19:36 2.71853 103.59080 110 ft 172 kts 126°
2026-05-05 19:36 2.71161 103.60060 29 ft 175 kts 127°
2026-05-05 19:36 2.70428 103.60959 352 ft 151 kts 136°
2026-05-05 19:37 2.69807 103.61606 989 ft 129 kts 135°
2026-05-05 19:37 2.69284 103.62161 1076 ft 107 kts 133°
2026-05-05 19:37 2.68734 103.62780 1173 ft 132 kts 131°
2026-05-05 19:37 2.68085 103.63505 1265 ft 147 kts 134°
2026-05-05 19:38 2.67330 103.64280 1217 ft 162 kts 135°
2026-05-05 19:38 2.66521 103.65065 1340 ft 161 kts 136°
2026-05-05 19:38 2.65735 103.65854 1518 ft 160 kts 133°
2026-05-05 19:38 2.65012 103.66680 1733 ft 157 kts 130°
2026-05-05 19:39 2.64317 103.67527 1854 ft 160 kts 131°
2026-05-05 19:39 2.63560 103.68341 1987 ft 162 kts 134°
2026-05-05 19:39 2.62775 103.69170 2092 ft 164 kts 131°
2026-05-05 19:39 2.62032 103.70063 2123 ft 169 kts 128°
2026-05-05 19:40 2.61225 103.70942 2089 ft 174 kts 132°
2026-05-05 19:40 2.60382 103.71834 2020 ft 179 kts 133°
2026-05-05 19:40 2.59480 103.72716 1896 ft 183 kts 138°
2026-05-05 19:40 2.58511 103.73538 1846 ft 182 kts 140°
2026-05-05 19:41 2.57543 103.74336 1823 ft 180 kts 139°
2026-05-05 19:41 2.56629 103.75182 1740 ft 180 kts 136°
2026-05-05 19:41 2.55742 103.76075 1602 ft 181 kts 133°
2026-05-05 19:41 2.54918 103.77024 1633 ft 175 kts 133°
2026-05-05 19:42 2.54015 103.77720 2011 ft 158 kts 150°
2026-05-05 19:42 2.53053 103.78255 2197 ft 159 kts 151°
2026-05-05 19:42 2.52088 103.78832 2369 ft 165 kts 147°
2026-05-05 19:42 2.51133 103.79478 2468 ft 167 kts 145°
2026-05-05 19:43 2.50235 103.80161 2565 ft 155 kts 141°
2026-05-05 19:43 2.49398 103.80826 2560 ft 154 kts 142°
2026-05-05 19:43 2.48547 103.81492 2456 ft 159 kts 143°
2026-05-05 19:43 2.47680 103.82143 2404 ft 152 kts 142°
2026-05-05 19:44 2.46835 103.82810 2135 ft 155 kts 147°
2026-05-05 19:44 2.45906 103.83330 2004 ft 150 kts 153°
2026-05-05 19:44 2.45025 103.83816 1892 ft 135 kts 151°
2026-05-05 19:44 2.44246 103.84297 1849 ft 137 kts 148°
2026-05-05 19:45 2.43727 103.84632 1759 ft 125 kts 146°
2026-05-05 19:45 2.43061 103.85080 1482 ft 118 kts 147°
2026-05-05 19:45 2.42348 103.85533 1350 ft 108 kts 149°
2026-05-05 19:45 2.41739 103.85846 1154 ft 88 kts 154°
2026-05-05 19:46 2.41218 103.86125 846 ft 81 kts 153°
2026-05-05 19:46 2.40684 103.86422 694 ft 84 kts 149°
2026-05-05 19:46 2.40181 103.86709 550 ft 86 kts 150°
2026-05-05 19:46 2.39677 103.87014 317 ft 81 kts 150°
2026-05-05 19:47 2.39193 103.87304 51 ft 77 kts 151°
2026-05-05 19:47 2.38828 103.87513 21 ft 47 kts 149°
2026-05-05 19:47 2.38703 103.87540 23 ft 3 kts 167°
2026-05-05 19:47 2.38687 103.87555 23 ft 0 kts 48°